Location: Pedholt
(56.0260°N, 10.2097°E)
Time: 17:46:07
(UTC+00:00)

A-11 Canister half - Pass Details

Date: 04 August 2021
Orbit: 1515 x 1685 km, 47.2° (Epoch: 20 September)

Event Time Altitude Azimuth Distance (km) Brightness Sun altitude
Rises 15:42:25 0° 221° (SW) 4,769 12.3 28.4°
Reaches altitude 10° 15:45:45 10° 214° (SSW) 3,811 11.8 27.9°
Maximum altitude 15:54:21 37° 151° (SSE) 2,348 10.1 26.7°
Drops below altitude 10° 16:03:13 10° 89° (E) 3,928 10.7 25.5°
Sets 16:06:41 0° 82° (E) 4,931 11.1 25.0°
